Flag for Azerbaijan Weather past 2 weeks in Sumqayit, Azerbaijan

Now
43 °F

Fog.


Feels Like: 34 °F
Forecast: 39 / 43 °F
Wind: 20 mph from East

Location: Baku / Bine Airport

Current Time: Mar 29, 2015 at 6:03:27 PM

Latest Report: Mar 29, 2015 at 5:30 PM


Visibility: 3 mi

Pressure: 30.24 "Hg

Humidity: 81%

Dew point: 37 °F

Location of SumqayitLocation

Historic Weather in Sumqayit — Graph

°F

Sumqayit temperature yesterday

Maximum temperature yesterday: 55 °F (at 10:00 AM)
Minimum temperature yesterday: 45 °F (at 9:30 PM)
Average temperature yesterday: 50 °F

Past Weeks' High & Low Weather Summary

 TemperatureHumidityPressure
High63 °F (Mar 26, 1:00 PM)100% (Mar 18, 6:30 PM)30.48 "Hg (Mar 18, 6:30 PM)
Low36 °F (Mar 20, 5:30 AM)55% (Mar 27, 3:30 PM)29.80 "Hg (Mar 21, 1:30 AM)
Average46 °F86%30.19 "Hg
* Reported Mar 14 4:00 PM — Mar 29 5:00 PM, Sumqayit, Weather by CustomWeather, © 2015

Note: Actual official high and low records may vary slightly from our data, if they occured in-between our weather recording intervals... More about our weather records

Advertising

Sumqayit weather history for previous 24 hours

 ConditionsComfort  
Time TempWeatherWind HumidityBarometerVisibility
5:00 PM
Sun, Mar 29
45 °FFog.18 mph76%30.24 "Hg3 mi
4:30 PM45 °FFog.17 mph76%30.24 "Hg2 mi
4:00 PM45 °FFog.17 mph76%30.21 "Hg2 mi
3:30 PM45 °FFog.17 mph76%30.21 "Hg3 mi
3:00 PM46 °FOvercast.16 mph76%30.21 "Hg4 mi
2:30 PM46 °FOvercast.16 mph76%30.21 "Hg4 mi
2:00 PM46 °FOvercast.18 mph76%30.21 "Hg4 mi
1:30 PM46 °FOvercast.20 mph76%30.18 "Hg4 mi
1:00 PM46 °FOvercast.21 mph82%30.21 "Hg5 mi
12:30 PM46 °FMostly cloudy.22 mph82%30.18 "HgN/A
12:00 PM48 °FMostly cloudy.16 mph76%30.21 "HgN/A
11:30 AM48 °FMostly cloudy.21 mph82%30.18 "HgN/A
11:00 AM48 °FMostly cloudy.18 mph82%30.21 "HgN/A
10:30 AM48 °FMostly cloudy.16 mph82%30.18 "HgN/A
10:00 AM48 °FMostly cloudy.15 mph87%30.18 "HgN/A
9:30 AM48 °FMostly cloudy.14 mph87%30.15 "HgN/A
9:00 AM48 °FMostly cloudy.12 mph87%30.15 "HgN/A
8:30 AM48 °FMostly cloudy.10 mph87%30.15 "Hg5 mi
8:00 AM50 °FMostly cloudy.8 mph82%30.15 "Hg5 mi
7:30 AM50 °FMostly cloudy.7 mph82%30.15 "HgN/A
7:00 AM46 °FClear.6 mph93%30.12 "Hg10 mi
6:30 AM46 °FClear.5 mph93%30.12 "Hg10 mi
6:00 AM45 °FPassing clouds.9 mph100%30.12 "HgN/A
5:30 AM45 °FPartly cloudy.9 mph93%30.12 "Hg4 mi
5:00 AM45 °FClear.6 mph100%30.09 "Hg10 mi
3:30 AM45 °FClear.7 mph100%30.09 "Hg10 mi
3:00 AM45 °FPassing clouds.5 mph100%30.09 "Hg4 mi
2:30 AM45 °FFog.8 mph100%30.09 "Hg2 mi
2:00 AM45 °FFog.6 mph100%30.09 "Hg1 mi
1:30 AM45 °FFog.7 mph100%30.12 "Hg1 mi
1:00 AM45 °FFog.7 mph100%30.12 "Hg1 mi
12:30 AM45 °FFog.7 mph100%30.12 "Hg1 mi
12:00 AM45 °FFog.7 mph100%30.12 "Hg1 mi
11:30 PM
Sat, Mar 28
45 °FFog.7 mph100%30.12 "Hg1 mi
11:00 PM45 °FFog.6 mph100%30.12 "Hg1 mi
10:30 PM45 °FFog.5 mph93%30.12 "Hg1 mi
10:00 PM45 °FFog.6 mph100%30.15 "Hg1 mi
9:30 PM45 °FFog.5 mph100%30.15 "Hg1 mi
9:00 PM46 °FFog.5 mph93%30.15 "Hg1 mi
8:30 PM46 °FFog.6 mph100%30.15 "Hg1 mi
8:00 PM46 °FFog.7 mph100%30.15 "Hg1 mi
7:30 PM46 °FFog.6 mph100%30.15 "Hg1 mi
7:00 PM48 °FFog.7 mph94%30.15 "Hg2 mi
6:30 PM48 °FPartly sunny.7 mph94%30.15 "HgN/A
6:00 PM50 °FLow clouds.6 mph88%30.15 "HgN/A
Weather by CustomWeather, © 2015

See weather overviewHow to use our weather pages